Location: Arcueil
(48.7999°N, 2.3326°E)
Time: 07:19:54
(UTC+00:00)

Cosmos 841 Rocket - Pass Details

Date: 03 February 2023
Orbit: 746 x 771 km, 74.0° (Epoch: 24 March)

Event Time Altitude Azimuth Distance (km) Brightness Sun altitude
Rises 18:28:38 0° 338° (NNW) 3,258 7.0 -16.2°
Reaches altitude 10° 18:31:03 10° 341° (NNW) 2,327 6.1 -16.6°
Maximum altitude 18:36:19 66° 64° (ENE) 840 3.4 -17.5°
Drops below altitude 10° 18:41:31 10° 147° (SSE) 2,303 5.7 -18.3°
Enters shadow 18:42:06 - 148° (SSE) 2,522 5.9 -18.4°
